Dickinson, ND

5:56 PM MST on December 16, 2017 (GMT -0700)
Dickinson Municipal

Weather History for KDIK - January, 2013

Change the Weather History Date:

Tuesday, January 22, 2013

  Actual Average Record
Temperature  
Mean Temperature 12 °F 17 °F  
Max Temperature 22 °F 27 °F 60 °F (1981)
Min Temperature 2 °F 7 °F -35 °F (1895)
Degree Days  
Heating Degree Days 53 48  
Month to date heating degree days 1029 1077  
Since 1 July heating degree days 4420 4614  
Cooling Degree Days 0 0  
Month to date cooling degree days 0 0  
Year to date cooling degree days 0 0  
Moisture  
Dew Point 5 °F    
Average Humidity 80    
Maximum Humidity 88    
Minimum Humidity 71    
Precipitation  
Precipitation T in 0.01 in 0.40 in (1897)
Month to date precipitation 0.06 0.23  
Year to date precipitation 0.06 0.23  
Sea Level Pressure  
Sea Level Pressure 30.20 in    
Wind  
Wind Speed 9 mph (WSW)    
Max Wind Speed 15 mph    
Max Gust Speed 16 mph    
Visibility 10 miles    
Events      
T = Trace of Precipitation, MM = Missing Value Source: NWS Daily Summary

Daily Weather History Graph

Daily Weather History Graph

Search for Another Location

Airport or City:

Trip Planner

Search our weather history database for the weather conditions in past years. The results will help you decide how hot, cold, wet, or windy it might be!

Date:

Astronomy

Jan. 22, 2013 Rise Set
Actual Time 7:26 AM MST 4:40 PM MST
Civil Twilight 6:52 AM MST 5:13 PM MST
Nautical Twilight 6:15 AM MST 5:50 PM MST
Astronomical Twilight 5:39 AM MST 6:26 PM MST
Moon 1:01 PM MST (1/22) 3:52 AM MST (1/22)
Length of Visible Light 10h 20m
Length of Day
9h 13m
Waxing Gibbous, 83% of the Moon is Illuminated
Jan 22
Waxing Gibbous
Jan 26
Full
Feb 3
Last Quarter
Feb 10
New
Feb 17
First Quarter

Hourly Weather History & Observations

Time (MST) Temp. Windchill Dew Point Humidity Pressure Visibility Wind Dir Wind Speed Gust Speed Precip Events Conditions
12:56 AM 3.9 °F -6.9 °F -0.0 °F 84% 30.27 in 10.0 mi South 5.8 mph - N/A   Overcast
1:56 AM 5.0 °F -5.6 °F -0.0 °F 80% 30.26 in 10.0 mi SE 5.8 mph - N/A   Overcast
2:56 AM 5.0 °F -9.1 °F -0.0 °F 80% 30.25 in 10.0 mi SE 9.2 mph - 0.00 in   Overcast
3:56 AM 3.9 °F -9.4 °F -0.0 °F 84% 30.25 in 10.0 mi ESE 8.1 mph - 0.00 in   Overcast
4:56 AM 3.9 °F -11.3 °F -0.0 °F 84% 30.24 in 10.0 mi SSE 10.4 mph - N/A   Overcast
5:56 AM 6.1 °F -6.8 °F 1.9 °F 83% 30.23 in 10.0 mi SSE 8.1 mph - N/A   Overcast
6:56 AM 7.0 °F -7.5 °F 3.0 °F 84% 30.22 in 10.0 mi South 10.4 mph - N/A   Overcast
7:56 AM 8.1 °F -6.2 °F 3.9 °F 83% 30.21 in 10.0 mi South 10.4 mph - N/A   Overcast
8:56 AM 10.0 °F -4.5 °F 5.0 °F 80% 30.21 in 10.0 mi SSW 11.5 mph - N/A   Overcast
9:56 AM 12.0 °F -0.4 °F 7.0 °F 80% 30.21 in 10.0 mi SSW 9.2 mph - N/A   Overcast
10:56 AM 14.0 °F 2.0 °F 8.1 °F 77% 30.18 in 10.0 mi SSW 9.2 mph - N/A   Overcast
11:56 AM 17.1 °F 7.6 °F 10.9 °F 77% 30.15 in 10.0 mi SW 6.9 mph - N/A   Overcast
12:56 PM 18.0 °F 6.9 °F 12.0 °F 78% 30.13 in 10.0 mi WSW 9.2 mph - N/A   Clear
1:56 PM 19.0 °F 9.0 °F 12.0 °F 74% 30.14 in 10.0 mi West 8.1 mph - N/A   Overcast
2:56 PM 21.9 °F 13.4 °F 14.0 °F 72% 30.14 in 10.0 mi NW 6.9 mph - N/A   Mostly Cloudy
3:56 PM 19.0 °F 6.8 °F 12.0 °F 74% 30.14 in 10.0 mi WNW 11.5 mph - N/A   Clear
4:56 PM 14.0 °F 2.0 °F 10.0 °F 84% 30.15 in 10.0 mi WNW 9.2 mph - N/A   Clear
5:56 PM 12.9 °F -0.2 °F 8.1 °F 81% 30.16 in 10.0 mi WNW 10.4 mph - N/A   Clear
6:56 PM 12.0 °F -3.4 °F 8.1 °F 84% 30.17 in 10.0 mi WNW 13.8 mph - N/A   Clear
7:56 PM 10.9 °F -3.4 °F 7.0 °F 84% 30.18 in 10.0 mi WNW 11.5 mph - N/A   Clear
8:56 PM 8.1 °F -6.2 °F 3.9 °F 83% 30.20 in 10.0 mi NW 10.4 mph - N/A   Clear
9:56 PM 7.0 °F -6.6 °F 3.9 °F 87% 30.22 in 10.0 mi NW 9.2 mph - N/A   Clear
10:56 PM 5.0 °F -8.1 °F 1.0 °F 84% 30.24 in 10.0 mi NW 8.1 mph - N/A   Clear
11:56 PM 3.9 °F -9.4 °F -0.0 °F 84% 30.24 in 10.0 mi WNW 8.1 mph - N/A   Scattered Clouds